Precipitable_Water
0.24 0.19 0.14 0.22 0.40 0.41 0.45 0.43 0.45 0.48 0.62 0.55 0.52 0.45 0.50 0.60 0.74 0.83 0.94 0.92 0.76 0.85 1.28 1.33 1.44 1.46 1.49 1.46 1.50 1.65 1.77 1.84 1.79 1.72 1.62 1.43 1.25 1.44 1.61 1.77 1.87 1.96 2.02 2.03
0.20 0.15 0.18 0.23 0.38 0.36 0.35 0.41 0.43 0.48 0.55 0.51 0.45 0.39 0.48 0.55 0.65 0.82 0.85 0.89 0.94 0.94 1.25 1.31 1.34 1.46 1.51 1.51 1.54 1.68 1.79 1.78 1.76 1.80 1.71 1.55 1.36 1.35 1.47 1.62 1.79 1.89 1.90 1.97
0.16 0.17 0.22 0.21 0.29 0.32 0.29 0.32 0.37 0.46 0.53 0.54 0.47 0.37 0.42 0.53 0.70 0.80 0.83 0.96 1.03 1.05 1.20 1.30 1.25 1.37 1.51 1.54 1.61 1.61 1.81 1.79 1.80 1.85 1.80 1.60 1.48 1.35 1.39 1.63 1.74 1.85 1.92 1.94
0.20 0.22 0.22 0.21 0.21 0.23 0.23 0.34 0.37 0.46 0.47 0.38 0.48 0.32 0.42 0.54 0.63 0.70 0.69 0.87 1.04 1.11 1.22 1.41 1.25 1.32 1.52 1.54 1.77 1.75 1.94 1.86 1.85 1.90 1.75 1.55 1.36 1.24 1.41 1.57 1.75 1.80 1.89 1.86
0.18 0.21 0.22 0.22 0.20 0.23 0.25 0.29 0.37 0.39 0.33 0.38 0.34 0.33 0.37 0.51 0.51 0.58 0.59 0.80 1.05 1.08 1.15 1.34 1.21 1.30 1.66 1.64 1.75 1.90 1.97 1.87 1.83 1.84 1.78 1.56 1.45 1.52 1.59 1.67 1.68 1.76 1.80 1.81
0.20 0.24 0.26 0.23 0.24 0.23 0.23 0.25 0.28 0.33 0.31 0.24 0.31 0.31 0.28 0.36 0.39 0.49 0.67 0.90 0.96 1.03 1.24 1.43 1.54 1.61 1.68 1.70 1.77 2.02 2.01 1.86 1.90 1.82 1.73 1.63 1.57 1.57 1.65 1.68 1.61 1.77 1.77 1.76
0.20 0.20 0.26 0.27 0.22 0.21 0.20 0.18 0.16 0.20 0.20 0.17 0.30 0.28 0.33 0.44 0.52 0.54 0.62 0.79 0.90 1.04 1.33 1.33 1.57 1.47 1.68 1.74 1.82 1.93 1.94 1.82 1.81 1.72 1.72 1.69 1.60 1.67 1.77 1.80 1.69 1.69 1.74 1.67
0.18 0.14 0.21 0.26 0.21 0.18 0.16 0.17 0.15 0.14 0.16 0.21 0.34 0.24 0.35 0.62 0.73 0.72 0.85 0.91 1.07 1.16 1.29 1.35 1.26 1.15 1.46 1.81 1.87 2.01 1.89 1.79 1.71 1.69 1.66 1.65 1.70 1.74 1.80 1.85 1.77 1.76 1.74 1.63
0.19 0.17 0.24 0.26 0.27 0.29 0.20 0.14 0.19 0.16 0.21 0.21 0.27 0.33 0.45 0.69 0.78 0.74 0.76 1.12 1.12 1.21 1.29 1.31 0.94 1.21 1.43 1.62 1.87 1.87 1.81 1.78 1.71 1.66 1.60 1.62 1.65 1.68 1.74 1.86 1.87 1.85 1.76 1.59
0.24 0.18 0.24 0.27 0.30 0.28 0.23 0.21 0.18 0.24 0.15 0.18 0.25 0.29 0.32 0.52 0.62 0.78 0.89 1.16 1.30 1.49 1.59 1.34 1.05 1.26 1.58 1.85 1.79 1.74 1.73 1.72 1.62 1.53 1.58 1.61 1.63 1.54 1.70 1.89 1.82 1.80 1.69 1.49
0.24 0.23 0.22 0.28 0.27 0.25 0.22 0.22 0.23 0.24 0.24 0.22 0.27 0.30 0.56 0.63 0.70 0.83 0.99 1.19 1.02 0.99 1.48 1.64 1.24 1.52 1.92 1.89 1.75 1.74 1.71 1.71 1.48 1.48 1.48 1.47 1.57 1.43 1.45 1.64 1.71 1.61 1.52 1.42
0.23 0.22 0.19 0.24 0.32 0.31 0.28 0.25 0.24 0.20 0.19 0.29 0.32 0.33 0.61 0.67 0.78 0.77 0.79 0.86 0.82 0.88 1.55 1.78 1.54 1.62 1.51 1.71 1.60 1.60 1.55 1.66 1.47 1.41 1.43 1.40 1.49 1.52 1.50 1.44 1.41 1.40 1.38 1.39
0.26 0.24 0.18 0.23 0.29 0.31 0.30 0.32 0.32 0.29 0.29 0.24 0.26 0.32 0.62 0.66 0.67 0.79 0.77 0.71 0.73 1.07 1.34 1.59 1.62 1.67 1.57 1.51 1.53 1.63 1.66 1.53 1.45 1.39 1.29 1.26 1.37 1.51 1.51 1.48 1.39 1.43 1.39 1.39
0.33 0.27 0.24 0.22 0.28 0.34 0.30 0.32 0.36 0.33 0.28 0.27 0.28 0.36 0.53 0.57 0.59 0.64 0.67 0.77 0.89 1.13 1.37 1.50 1.63 1.56 1.61 1.52 1.54 1.60 1.55 1.47 1.38 1.24 1.16 1.21 1.33 1.44 1.46 1.48 1.49 1.41 1.37 1.30
0.37 0.25 0.26 0.26 0.32 0.32 0.31 0.33 0.36 0.34 0.34 0.29 0.36 0.40 0.50 0.57 0.58 0.62 0.66 0.71 0.97 1.28 1.52 1.48 1.57 1.51 1.43 1.48 1.45 1.52 1.54 1.43 1.28 1.16 1.18 1.26 1.41 1.43 1.46 1.53 1.56 1.51 1.46 1.41
0.53 0.31 0.29 0.23 0.26 0.31 0.29 0.31 0.38 0.38 0.36 0.40 0.48 0.51 0.66 0.69 0.73 0.70 0.69 0.74 0.86 1.07 1.41 1.38 1.40 1.49 1.46 1.40 1.42 1.47 1.38 1.32 1.22 1.19 1.18 1.31 1.39 1.39 1.43 1.55 1.65 1.64 1.58 1.52
0.47 0.41 0.35 0.21 0.28 0.27 0.22 0.29 0.34 0.36 0.39 0.42 0.43 0.55 0.73 0.71 0.74 0.72 0.74 0.90 0.95 1.17 1.23 1.18 1.28 1.21 1.36 1.43 1.43 1.40 1.22 1.26 1.19 1.24 1.24 1.26 1.33 1.35 1.41 1.53 1.61 1.64 1.65 1.68
0.43 0.44 0.43 0.29 0.28 0.19 0.25 0.35 0.39 0.42 0.47 0.56 0.50 0.55 0.65 0.67 0.76 0.80 0.84 0.88 0.96 1.10 1.10 1.13 1.27 1.25 1.45 1.46 1.36 1.48 1.30 1.20 1.22 1.25 1.22 1.22 1.28 1.34 1.40 1.43 1.51 1.60 1.64 1.65
0.45 0.41 0.37 0.30 0.29 0.34 0.33 0.37 0.45 0.43 0.37 0.65 0.56 0.55 0.68 0.79 0.78 0.71 0.83 0.92 1.01 1.09 1.21 1.34 1.30 1.32 1.36 1.37 1.43 1.42 1.29 1.24 1.21 1.24 1.22 1.21 1.31 1.35 1.39 1.37 1.41 1.51 1.56 1.58
0.34 0.42 0.36 0.36 0.31 0.30 0.47 0.54 0.65 0.64 0.38 0.71 0.63 0.61 0.61 0.69 0.60 0.72 1.09 1.19 1.17 1.28 1.28 1.29 1.40 1.36 1.37 1.45 1.45 1.33 1.32 1.29 1.23 1.30 1.29 1.33 1.42 1.45 1.40 1.44 1.44 1.50 1.55 1.58
0.32 0.32 0.33 0.36 0.37 0.43 0.67 0.76 0.72 0.36 0.50 0.90 0.84 0.71 0.68 0.71 0.85 1.01 1.28 1.30 1.64 1.38 1.29 1.35 1.37 1.34 1.42 1.45 1.42 1.33 1.39 1.36 1.36 1.46 1.39 1.40 1.49 1.50 1.52 1.50 1.51 1.52 1.52 1.58
0.48 0.40 0.37 0.36 0.34 0.34 0.83 0.81 0.60 0.79 0.98 1.00 0.96 0.92 0.95 0.99 1.05 1.15 1.31 1.29 1.44 1.49 1.29 1.28 1.21 1.25 1.34 1.41 1.41 1.33 1.35 1.49 1.56 1.59 1.50 1.45 1.52 1.58 1.58 1.57 1.56 1.51 1.50 1.50
0.53 0.62 0.56 0.61 0.64 0.87 0.92 0.90 0.98 1.04 1.02 0.99 1.05 1.09 1.08 1.04 1.06 1.09 1.18 1.17 1.19 1.45 1.27 1.26 1.19 1.20 1.30 1.40 1.45 1.36 1.45 1.62 1.64 1.63 1.59 1.53 1.56 1.66 1.67 1.54 1.52 1.50 1.52 1.50
0.71 0.79 0.67 0.69 0.83 0.87 0.95 1.00 1.00 1.01 0.99 1.11 1.20 1.15 1.14 1.10 1.12 1.08 1.15 1.18 1.37 1.49 1.21 1.23 1.22 1.25 1.28 1.40 1.51 1.54 1.54 1.57 1.60 1.55 1.52 1.51 1.51 1.49 1.50 1.53 1.51 1.52 1.49 1.47
0.68 0.70 0.64 0.69 0.72 0.74 0.81 0.85 1.00 0.99 1.03 1.00 1.10 1.14 1.13 1.14 1.14 1.22 1.07 1.00 1.28 1.42 1.27 1.16 1.10 1.16 1.28 1.41 1.43 1.49 1.48 1.49 1.42 1.43 1.45 1.45 1.45 1.41 1.36 1.40 1.40 1.40 1.45 1.48
0.71 0.64 0.56 0.54 0.71 0.70 0.68 0.82 0.89 0.90 0.88 0.95 1.00 1.07 1.22 1.22 1.26 1.33 1.30 1.30 1.37 1.41 1.32 1.17 1.11 1.09 1.17 1.23 1.30 1.34 1.38 1.40 1.33 1.21 1.18 1.18 1.20 1.25 1.24 1.22 1.23 1.32 1.38 1.41
Wind_Speed
12 12 14 19 17 14 10 9 8 10 11 10 12 12 11 11 13 9 9 8 5 6 6 4 2 3 3 3 3 3 4 5 6 8 8 9 10 9 8 6 3 3 4 8
11 13 16 16 17 15 13 11 10 7 5 7 11 14 13 11 16 13 12 10 9 5 6 4 4 3 3 3 3 3 5 7 7 8 8 7 7 7 6 5 3 1 2 4
13 14 10 13 18 15 15 14 12 9 5 5 5 8 10 7 13 14 13 12 10 8 7 6 5 5 4 4 4 4 5 7 8 8 7 7 7 6 5 4 3 1 2 3
14 16 14 13 15 18 17 18 15 16 7 10 6 11 10 9 14 15 14 14 13 8 9 9 6 6 5 5 5 6 6 7 8 8 8 8 7 6 5 5 3 2 2 3
16 14 13 13 15 14 15 14 18 15 13 7 12 7 11 10 14 17 16 16 15 14 12 11 9 8 6 6 6 8 5 7 9 8 9 9 8 8 7 6 5 4 4 3
18 16 15 15 14 14 14 14 11 11 10 9 10 9 12 13 19 16 12 14 17 15 14 11 10 8 7 7 6 6 6 8 9 10 11 10 10 10 9 8 6 6 6 5
15 17 16 15 14 12 10 9 12 12 11 12 10 9 11 11 12 13 14 16 15 16 13 10 9 9 10 8 6 6 6 8 9 11 12 12 11 12 13 11 11 8 9 7
12 13 16 14 13 13 13 12 11 12 10 11 8 12 11 9 8 9 6 11 14 13 13 12 8 7 8 8 6 5 6 9 10 12 12 13 12 13 14 12 11 11 10 8
13 15 14 15 14 12 14 14 13 10 10 9 12 12 10 7 6 6 7 9 12 13 15 15 8 7 6 6 4 6 6 9 10 11 11 12 12 13 14 9 8 9 8 6
15 13 15 17 14 15 16 13 10 9 11 14 12 13 11 10 9 3 4 9 7 8 12 13 9 8 7 4 3 3 6 8 10 10 11 11 10 13 12 3 7 8 7 5
18 15 20 13 11 13 14 10 12 11 11 10 9 12 12 10 9 6 6 9 11 35 31 17 11 8 6 3 2 3 6 7 8 9 10 10 8 8 11 10 7 6 5 4
19 17 18 20 14 12 13 17 11 14 16 11 11 13 12 11 10 10 9 10 16 18 27 12 11 8 4 4 2 4 6 7 7 9 9 9 6 5 5 5 4 4 4 3
17 16 16 15 12 10 9 9 10 13 12 15 12 15 13 14 12 13 12 16 17 11 13 11 7 7 6 5 4 4 4 6 5 8 9 7 4 4 4 3 1 2 3 3
11 13 15 17 15 12 10 11 9 11 12 15 16 15 15 18 15 14 16 13 12 12 5 7 7 7 7 6 5 4 4 3 3 5 6 6 5 4 5 4 3 2 2 3
10 12 14 16 16 12 13 11 12 13 16 15 17 15 16 18 17 15 13 14 11 9 7 7 8 9 8 7 6 5 5 3 2 2 4 5 5 6 6 5 3 5 5 5
10 11 13 15 14 14 15 15 14 16 10 10 12 16 15 16 16 16 15 10 11 10 9 9 9 10 9 9 7 6 6 4 2 1 2 3 4 5 5 5 4 4 8 8
13 12 12 16 16 17 17 18 18 17 18 12 13 17 15 17 18 18 15 13 13 11 12 10 11 10 10 10 8 7 7 5 3 3 3 3 3 4 5 5 5 5 4 9
15 14 14 17 16 18 22 21 21 20 17 18 19 16 23 21 20 19 17 15 13 13 11 12 12 11 10 9 8 8 7 6 5 5 4 4 4 4 5 5 5 5 5 4
19 17 17 16 18 20 20 17 17 18 24 21 20 16 20 20 17 19 19 17 16 14 12 13 13 12 11 9 8 8 7 7 7 7 7 6 6 6 6 6 6 6 5 4
20 18 18 15 15 15 16 19 21 19 22 21 20 20 19 19 19 19 17 16 18 16 13 12 12 12 12 11 10 8 8 8 9 9 9 9 8 8 8 8 8 8 7 6
18 19 21 18 18 17 16 19 18 17 22 24 21 19 20 20 21 19 17 15 17 16 14 12 12 13 14 13 12 10 9 10 11 11 11 11 11 11 10 11 11 10 10 10
13 15 16 17 18 19 19 16 14 20 21 21 19 18 18 17 17 17 18 19 20 15 14 14 13 13 12 12 12 11 12 13 12 13 12 13 13 13 13 14 13 14 13 13
13 13 14 12 13 14 12 11 14 17 18 19 20 21 23 24 23 22 24 23 27 20 16 15 13 12 11 12 12 11 12 13 14 13 13 13 14 15 15 16 15 16 16 16
12 12 12 12 12 14 13 14 16 17 18 20 21 24 25 27 27 27 25 24 30 23 18 17 15 14 13 12 12 13 13 12 12 13 13 14 14 15 16 16 17 16 17 17
13 13 14 14 16 16 16 17 19 21 23 23 24 26 29 31 29 30 28 24 23 19 17 16 14 14 14 14 14 13 14 14 15 14 15 15 16 16 16 16 16 15 15 16
13 13 13 16 18 19 20 20 21 21 23 26 25 28 31 32 33 31 26 25 29 20 17 15 13 12 12 12 13 14 14 14 15 15 15 15 15 15 16 16 16 16 17 18
Wind_Direction
236 230 228 227 221 226 233 260 276 287 239 242 247 260 250 266 219 221 213 245 267 262 232 251 247 277 317 334 344 352 347 347 350 353 354 360 11 23 34 48 76 87 148 187
243 239 231 226 228 226 235 246 273 283 235 257 264 265 266 257 217 218 228 245 257 244 227 233 242 267 281 307 324 339 340 341 343 346 349 354 2 10 20 32 43 88 153 189
224 230 229 229 233 235 239 234 249 241 274 239 273 283 285 252 218 233 251 248 240 229 216 228 243 259 274 277 287 315 327 338 340 341 343 343 345 354 358 354 339 282 242 234
233 234 237 241 238 239 243 233 236 243 259 254 270 275 270 254 235 240 257 247 231 233 232 233 250 255 259 271 275 301 311 331 337 334 335 326 320 321 322 330 313 284 257 256
235 233 239 240 239 230 240 228 232 244 258 261 283 259 272 256 254 254 263 240 229 233 238 232 245 247 254 269 277 295 306 319 333 328 326 327 315 308 304 300 283 267 262 253
238 239 236 239 248 239 238 246 247 253 245 259 260 254 271 245 250 254 247 230 231 230 228 234 251 250 254 262 272 286 309 316 324 326 322 315 308 304 292 285 270 261 248 248
248 244 241 242 243 249 233 238 248 251 258 244 255 269 273 269 246 239 240 229 235 223 217 229 226 248 247 251 261 286 307 323 322 325 322 316 310 301 296 276 262 258 242 239
232 250 228 234 231 232 241 222 226 233 237 244 251 267 276 269 266 227 217 230 213 216 215 210 227 221 233 248 263 289 312 325 323 325 326 324 318 313 303 273 256 268 223 229
226 243 234 231 235 240 249 232 238 232 241 248 255 269 280 258 254 266 245 215 216 218 206 198 227 222 221 239 270 304 316 324 329 332 336 337 331 331 316 263 239 202 202 219
231 241 231 242 252 252 219 226 237 249 234 249 261 260 261 258 252 246 231 214 248 258 241 223 225 224 218 218 312 330 341 338 342 345 345 347 349 358 15 168 181 177 189 195
225 230 243 235 240 236 222 235 233 229 231 235 249 257 270 243 243 220 228 225 268 313 235 239 216 206 201 217 286 314 335 344 350 355 355 360 4 26 51 74 120 157 170 180
225 229 235 232 246 235 227 238 234 227 247 248 243 258 268 255 262 242 245 254 278 289 236 218 196 190 200 231 268 300 326 346 349 357 1 4 20 31 37 60 83 125 148 164
219 229 233 243 243 246 245 230 236 240 242 244 244 259 254 264 257 249 255 274 295 287 271 247 193 205 220 250 267 287 316 337 347 355 0 14 25 24 21 12 68 161 183 196
220 220 214 217 219 228 245 245 231 234 246 248 251 255 246 256 253 258 261 266 286 291 225 193 216 215 224 246 258 276 298 310 329 359 12 13 9 354 341 327 268 241 222 206
218 220 224 222 221 232 242 256 251 252 254 251 245 241 242 240 248 253 251 260 275 274 222 218 217 218 225 233 249 264 274 262 281 359 9 8 4 3 1 351 283 246 239 229
244 237 245 241 240 241 244 257 252 254 261 274 247 256 245 240 247 259 275 264 264 260 227 227 221 225 229 232 251 263 259 240 240 305 352 1 10 6 6 2 11 311 245 236
242 244 249 247 251 252 246 239 249 258 265 263 259 260 230 239 242 243 248 254 250 236 224 216 221 225 227 237 254 258 242 230 236 271 296 315 325 330 334 342 346 348 316 235
243 246 251 254 257 249 245 249 250 253 260 278 276 241 228 232 237 240 247 246 240 230 228 225 230 233 228 239 249 244 234 238 247 265 274 284 288 294 318 320 319 326 324 322
242 248 254 248 248 257 258 254 258 260 262 275 270 253 239 237 240 245 241 240 234 230 238 234 230 230 229 227 235 240 244 251 254 261 266 271 269 274 286 298 301 298 298 312
234 240 238 244 250 254 252 262 263 258 258 276 269 255 239 232 242 245 249 241 226 234 241 235 227 226 230 229 232 244 254 258 255 255 262 265 267 268 275 279 290 290 284 281
242 243 237 243 245 253 276 275 263 253 261 281 268 251 232 237 239 242 235 240 237 229 232 236 235 234 233 231 236 251 264 268 258 258 260 263 264 269 273 272 278 284 281 272
234 240 245 245 244 253 287 266 258 260 265 272 260 248 241 239 236 236 236 239 258 241 236 233 234 237 237 240 241 254 266 269 259 260 261 261 265 272 275 272 275 277 275 269
237 233 237 245 242 250 263 250 267 264 266 271 267 255 246 247 251 257 266 259 264 239 232 233 233 230 243 249 249 261 273 265 258 257 263 264 269 271 279 279 279 280 272 267
239 240 240 238 250 258 256 261 271 275 272 272 270 264 257 253 257 258 264 263 264 219 225 233 233 239 247 251 254 259 268 265 260 261 264 269 271 275 280 283 284 282 275 270
241 245 249 247 259 266 265 278 279 278 276 275 274 270 266 266 263 259 252 249 234 217 221 228 232 238 247 253 257 260 263 264 263 265 265 268 273 276 281 283 284 284 282 280
249 247 254 255 259 263 270 279 284 281 284 281 277 283 271 264 262 252 245 230 208 206 213 220 226 236 248 259 261 263 264 265 267 266 265 268 272 275 279 282 282 282 283 284